Flag for Algeria Weather past 2 weeks in Constantine, Algeria

Now
88 °F

Sunny.


Feels Like: 84 °F
Forecast: 66 / 98 °F
Wind: 5 mph from Southeast

Location: Constantine Airport

Current Time: Aug 29, 2014 at 11:23:55 AM

Latest Report: Aug 29, 2014 at 11:00 AM


Visibility: 10 mi

Pressure: 30.12 "Hg

Humidity: 18%

Dew point: 39 °F

Location of ConstantineLocation

Historic Weather in Constantine — Graph

°F

Constantine temperature yesterday

Maximum temperature yesterday: 95 °F (at 2:00 PM)
Minimum temperature yesterday: 63 °F (at 4:30 AM)
Average temperature yesterday: 79 °F

Past Weeks' High & Low Weather Summary

 TemperatureHumidityPressure
High108 °F (Aug 19, 2:00 PM)94% (Aug 24, 6:00 AM)30.21 "Hg (Aug 24, 6:00 AM)
Low61 °F (Aug 29, 6:00 AM)12% (Aug 19, 2:00 PM)29.95 "Hg (Aug 18, 4:30 PM)
Average79 °F50%30.08 "Hg
* Reported Aug 14 10:00 AM — Aug 29 10:00 AM, Constantine, Weather by CustomWeather, © 2014

Note: Actual official high and low records may vary slightly from our data, if they occured in-between our weather recording intervals... More about our weather records

Advertising

Constantine weather history for previous 24 hours

 ConditionsComfort  
Time TempWeatherWind HumidityBarometerVisibility
10:00 AM
Aug 29
82 °FSunny.No wind35%30.15 "Hg10 mi
9:30 AM81 °FSunny.No wind37%30.15 "Hg10 mi
9:00 AM77 °FSunny.3 mph39%30.12 "Hg10 mi
8:30 AM75 °FSunny.No wind41%30.12 "Hg10 mi
8:00 AM70 °FSunny.No wind46%30.12 "Hg10 mi
7:30 AM72 °FSunny.No wind47%30.12 "Hg10 mi
7:00 AM66 °FSunny.No wind56%30.12 "Hg10 mi
6:30 AM61 °FSunny.No wind59%30.12 "Hg10 mi
6:00 AM61 °FClear.No wind59%30.12 "Hg10 mi
5:30 AM63 °FClear.No wind56%30.12 "Hg10 mi
5:00 AM63 °FClear.No wind56%30.12 "Hg10 mi
4:30 AM63 °FClear.No wind56%30.12 "Hg10 mi
3:30 AM64 °FClear.No wind52%30.12 "Hg10 mi
3:00 AM64 °FClear.No wind52%30.12 "Hg10 mi
2:00 AM64 °FClear.No wind52%30.12 "Hg10 mi
1:30 AM70 °FClear.No wind46%30.12 "Hg10 mi
1:00 AM70 °FClear.No wind46%30.12 "Hg10 mi
12:30 AM66 °FClear.No wind49%30.12 "Hg10 mi
12:00 AM66 °FClear.No wind49%30.12 "Hg10 mi
11:30 PM
Aug 28
68 °FClear.No wind53%30.12 "Hg10 mi
11:00 PM72 °FClear.No wind47%30.12 "Hg10 mi
10:30 PM72 °FClear.No wind44%30.12 "Hg10 mi
10:00 PM72 °FClear.No wind44%30.12 "Hg10 mi
9:30 PM73 °FClear.No wind44%30.12 "Hg10 mi
9:00 PM75 °FClear.No wind41%30.12 "Hg10 mi
8:30 PM75 °FClear.No wind44%30.09 "Hg10 mi
8:00 PM77 °FClear.5 mph42%30.09 "Hg10 mi
7:30 PM82 °FClear.6 mph37%30.09 "Hg10 mi
7:00 PM82 °FSunny.6 mph37%30.09 "Hg10 mi
6:30 PM84 °FSunny.9 mph40%30.07 "Hg10 mi
6:00 PM88 °FSunny.9 mph35%30.07 "Hg10 mi
5:30 PM88 °FSunny.12 mph35%30.07 "Hg10 mi
5:00 PM90 °FSunny.12 mph33%30.07 "Hg10 mi
4:30 PM93 °FSunny.15 mph21%30.07 "Hg10 mi
4:00 PM91 °FSunny.15 mph30%30.07 "Hg10 mi
3:30 PM93 °FSunny.12 mph21%30.07 "Hg10 mi
3:00 PM95 °FSunny.9 mph20%30.07 "Hg10 mi
2:30 PM95 °FSunny.14 mph20%30.07 "Hg10 mi
2:00 PM95 °FSunny.14 mph20%30.09 "Hg10 mi
1:30 PM93 °FSunny.9 mph21%30.09 "Hg10 mi
1:00 PM91 °FSunny.9 mph23%30.09 "Hg10 mi
12:30 PM93 °FSunny.9 mph21%30.09 "Hg10 mi
12:00 PM90 °FSunny.9 mph20%30.09 "Hg10 mi
11:30 AM90 °FSunny.9 mph18%30.09 "Hg10 mi
11:00 AM90 °FSunny.7 mph18%30.12 "Hg10 mi
Weather by CustomWeather, © 2014

See weather overviewHow to use our weather pages